| time (UTC) | temp F | wind direction | speed MPH | gust MPH | rain 1hr in | rain 24hr in | rain mn in | humidity % | barometer mb |
| 20260509054704 | 57 | 270 | 0.0 | 0.0 | 0.00 | 0.00 | 0.00 | 92 | 1008.8 |
| 20260509054124 | 57 | 270 | 0.0 | 0.0 | 0.00 | 0.00 | 0.00 | 92 | 1008.8 |
| 20260509053606 | 57 | 270 | 0.0 | 0.0 | 0.00 | 0.00 | 0.00 | 92 | 1008.8 |
| 20260509053101 | 57 | 270 | 0.0 | 0.0 | 0.00 | 0.00 | 0.00 | 92 | 1008.8 |
| 20260509052616 | 57 | 270 | 0.0 | 0.0 | 0.00 | 0.00 | 0.00 | 91 | 1008.7 |
| 20260509052132 | 57 | 270 | 0.0 | 0.0 | 0.00 | 0.00 | 0.00 | 91 | 1008.7 |
| 20260509051626 | 57 | 270 | 0.0 | 0.0 | 0.00 | 0.00 | 0.00 | 91 | 1008.7 |
| 20260509051100 | 57 | 270 | 0.0 | 0.0 | 0.00 | 0.00 | 0.00 | 91 | 1008.7 |
| 20260509050614 | 57 | 270 | 0.0 | 0.0 | 0.00 | 0.00 | 0.00 | 91 | 1008.7 |
| 20260509050113 | 57 | 270 | 0.0 | 0.0 | 0.00 | 0.00 | 0.00 | 91 | 1008.7 |
| 20260509045610 | 57 | 270 | 0.0 | 0.0 | 0.00 | 0.00 | 0.00 | 91 | 1008.6 |
| 20260509045105 | 57 | 270 | 0.0 | 0.0 | 0.00 | 0.00 | 0.00 | 91 | 1008.6 |
| 20260509044621 | 57 | 270 | 0.0 | 0.0 | 0.00 | 0.00 | 0.00 | 91 | 1008.6 |
| 20260509044225 | 57 | 270 | 0.0 | 0.0 | 0.00 | 0.00 | 0.00 | 91 | 1008.7 |
| 20260509043558 | 57 | 270 | 0.0 | 0.0 | 0.00 | 0.00 | 0.00 | 91 | 1008.7 |
| 20260509043114 | 57 | 270 | 0.0 | 0.0 | 0.00 | 0.00 | 0.00 | 90 | 1008.7 |
| 20260509042630 | 57 | 270 | 0.0 | 0.0 | 0.00 | 0.00 | 0.00 | 90 | 1008.6 |
| 20260509042103 | 57 | 270 | 0.0 | 0.0 | 0.00 | 0.00 | 0.00 | 90 | 1008.6 |
| 20260509041558 | 58 | 270 | 0.0 | 0.0 | 0.00 | 0.00 | 0.00 | 90 | 1008.6 |
| 20260509041133 | 58 | 270 | 0.0 | 0.0 | 0.00 | 0.00 | 0.00 | 90 | 1008.3 |
| 20260509040610 | 57 | 270 | 0.0 | 0.0 | 0.00 | 0.00 | 0.00 | 90 | 1008.3 |
| 20260509040106 | 57 | 270 | 0.0 | 0.0 | 0.00 | 0.00 | 0.00 | 90 | 1008.3 |
| 20260509035601 | 58 | 270 | 0.0 | 0.0 | 0.00 | 0.00 | 0.00 | 90 | 1008.2 |
| 20260509035057 | 58 | 270 | 0.0 | 0.0 | 0.00 | 0.00 | 0.00 | 90 | 1008.2 |
| 20260509034610 | 58 | 270 | 0.0 | 1.0 | 0.00 | 0.00 | 0.00 | 89 | 1008.2 |
| 20260509034132 | 58 | 270 | 0.0 | 1.0 | 0.00 | 0.00 | 0.00 | 89 | 1008.0 |
| 20260509033616 | 58 | 270 | 0.0 | 0.0 | 0.00 | 0.00 | 0.00 | 89 | 1008.0 |
| 20260509033109 | 58 | 270 | 0.0 | 2.0 | 0.00 | 0.00 | 0.00 | 89 | 1008.0 |
| 20260509032607 | 58 | 270 | 0.0 | 2.0 | 0.00 | 0.00 | 0.00 | 89 | 1008.1 |
| 20260509032103 | 58 | 269 | 0.0 | 1.0 | 0.00 | 0.00 | 0.00 | 89 | 1008.1 |
| 20260509031558 | 58 | 269 | 0.0 | 1.0 | 0.00 | 0.00 | 0.00 | 89 | 1008.1 |
| 20260509031112 | 58 | 269 | 0.0 | 1.0 | 0.00 | 0.00 | 0.00 | 89 | 1007.8 |
| 20260509030629 | 59 | 257 | 0.0 | 0.0 | 0.00 | 0.00 | 0.00 | 88 | 1007.8 |
| 20260509030129 | 59 | 259 | 0.0 | 2.0 | 0.00 | 0.00 | 0.00 | 88 | 1007.8 |
| 20260509025717 | 59 | 260 | 0.0 | 2.0 | 0.00 | 0.00 | 0.00 | 88 | 1007.6 |
| 20260509025128 | 59 | 259 | 0.0 | 3.0 | 0.00 | 0.00 | 0.00 | 88 | 1007.6 |
| 20260509024607 | 59 | 186 | 1.0 | 4.0 | 0.00 | 0.00 | 0.00 | 88 | 1007.6 |
| 20260509024059 | 59 | 284 | 0.0 | 5.0 | 0.00 | 0.00 | 0.00 | 87 | 1007.6 |
| 20260509023614 | 59 | 286 | 1.0 | 5.0 | 0.00 | 0.00 | 0.00 | 87 | 1007.6 |
| 20260509023149 | 59 | 279 | 0.0 | 0.0 | 0.00 | 0.00 | 0.00 | 87 | 1007.6 |
| 20260509022614 | 60 | 279 | 0.0 | 2.0 | 0.00 | 0.00 | 0.00 | 86 | 1007.5 |
| 20260509022110 | 60 | 279 | 0.0 | 4.0 | 0.00 | 0.00 | 0.00 | 86 | 1007.5 |
| 20260509021606 | 60 | 279 | 0.0 | 4.0 | 0.00 | 0.00 | 0.00 | 86 | 1007.5 |
| 20260509021101 | 60 | 257 | 0.0 | 4.0 | 0.00 | 0.00 | 0.00 | 85 | 1007.5 |
| 20260509020557 | 60 | 228 | 1.0 | 11.0 | 0.00 | 0.00 | 0.00 | 84 | 1007.5 |
| 20260509020111 | 60 | 280 | 2.0 | 11.0 | 0.00 | 0.00 | 0.00 | 84 | 1007.5 |
| 20260509015607 | 61 | 273 | 1.0 | 7.0 | 0.00 | 0.00 | 0.00 | 83 | 1007.2 |
| 20260509015106 | 62 | 214 | 2.0 | 7.0 | 0.00 | 0.00 | 0.00 | 82 | 1007.2 |
| 20260509014604 | 62 | 185 | 0.0 | 7.0 | 0.00 | 0.00 | 0.00 | 82 | 1007.2 |
| 20260509014100 | 62 | 292 | 1.0 | 6.0 | 0.00 | 0.00 | 0.00 | 81 | 1007.3 |
| 20260509013558 | 62 | 236 | 1.0 | 6.0 | 0.00 | 0.00 | 0.00 | 81 | 1007.3 |
| 20260509013131 | 62 | 213 | 1.0 | 5.0 | 0.00 | 0.00 | 0.00 | 80 | 1007.3 |
| 20260509012625 | 63 | 294 | 1.0 | 7.0 | 0.00 | 0.00 | 0.00 | 80 | 1007.4 |
| 20260509012103 | 63 | 223 | 1.0 | 7.0 | 0.00 | 0.00 | 0.00 | 79 | 1007.4 |
| 20260509011602 | 63 | 261 | 2.0 | 5.0 | 0.00 | 0.00 | 0.00 | 78 | 1007.4 |
| 20260509011118 | 64 | 287 | 1.0 | 5.0 | 0.00 | 0.00 | 0.00 | 77 | 1007.2 |
| 20260509010612 | 64 | 300 | 1.0 | 4.0 | 0.00 | 0.00 | 0.00 | 77 | 1007.2 |
| 20260509010130 | 65 | 202 | 0.0 | 5.0 | 0.00 | 0.00 | 0.00 | 77 | 1007.2 |
| 20260509005603 | 65 | 228 | 1.0 | 6.0 | 0.00 | 0.00 | 0.00 | 77 | 1007.5 |
| 20260509005057 | 65 | 259 | 2.0 | 10.0 | 0.00 | 0.00 | 0.00 | 77 | 1007.5 |
| 20260509004648 | 65 | 290 | 2.0 | 10.0 | 0.00 | 0.00 | 0.00 | 75 | 1007.5 |
| 20260509004138 | 66 | 211 | 2.0 | 7.0 | 0.00 | 0.00 | 0.00 | 73 | 1007.5 |
| 20260509003659 | 67 | 270 | 1.0 | 6.0 | 0.00 | 0.00 | 0.00 | 72 | 1007.5 |
| 20260509003106 | 67 | 175 | 1.0 | 11.0 | 0.00 | 0.00 | 0.00 | 71 | 1007.5 |
| 20260509002600 | 67 | 200 | 1.0 | 11.0 | 0.00 | 0.00 | 0.00 | 70 | 1007.5 |
| 20260509002058 | 68 | 267 | 1.0 | 6.0 | 0.00 | 0.00 | 0.00 | 69 | 1007.5 |
| 20260509001613 | 68 | 279 | 2.0 | 6.0 | 0.00 | 0.00 | 0.00 | 69 | 1007.5 |
| 20260509001108 | 68 | 249 | 0.0 | 7.0 | 0.00 | 0.00 | 0.00 | 69 | 1007.5 |
| 20260509000604 | 68 | 279 | 2.0 | 7.0 | 0.00 | 0.00 | 0.00 | 68 | 1007.5 |
| 20260509000058 | 68 | 255 | 0.0 | 4.0 | 0.00 | 0.00 | 0.00 | 68 | 1007.5 |
| 20260508235613 | 68 | 222 | 0.0 | 5.0 | 0.00 | 0.00 | 0.00 | 69 | 1007.5 |
| 20260508235108 | 68 | 209 | 2.0 | 6.0 | 0.00 | 0.00 | 0.00 | 69 | 1007.5 |
| 20260508234603 | 68 | 247 | 1.0 | 6.0 | 0.00 | 0.00 | 0.00 | 69 | 1007.5 |
| 20260508234102 | 68 | 238 | 2.0 | 5.0 | 0.00 | 0.00 | 0.00 | 67 | 1007.6 |
| 20260508233630 | 69 | 300 | 1.0 | 7.0 | 0.00 | 0.00 | 0.00 | 66 | 1007.6 |
| 20260508233136 | 69 | 269 | 3.0 | 7.0 | 0.00 | 0.00 | 0.00 | 65 | 1007.6 |
| 20260508232613 | 70 | 273 | 2.0 | 4.0 | 0.00 | 0.00 | 0.00 | 65 | 1007.7 |
| 20260508232107 | 70 | 220 | 0.0 | 6.0 | 0.00 | 0.00 | 0.00 | 65 | 1007.7 |
| 20260508231603 | 69 | 279 | 1.0 | 6.0 | 0.00 | 0.00 | 0.00 | 66 | 1007.7 |
| 20260508231105 | 69 | 219 | 1.0 | 5.0 | 0.00 | 0.00 | 0.00 | 65 | 1007.9 |
| 20260508230603 | 69 | 267 | 2.0 | 5.0 | 0.00 | 0.00 | 0.00 | 66 | 1007.9 |
| 20260508230146 | 69 | 275 | 1.0 | 6.0 | 0.00 | 0.00 | 0.00 | 66 | 1007.9 |
| 20260508225619 | 69 | 291 | 2.0 | 6.0 | 0.00 | 0.00 | 0.00 | 67 | 1008.0 |
| 20260508225132 | 69 | 246 | 0.0 | 9.0 | 0.00 | 0.00 | 0.00 | 67 | 1008.0 |
| 20260508224628 | 69 | 284 | 3.0 | 9.0 | 0.00 | 0.00 | 0.00 | 67 | 1008.0 |
| 20260508224122 | 69 | 265 | 3.0 | 10.0 | 0.00 | 0.00 | 0.00 | 66 | 1008.1 |
| 20260508223555 | 70 | 279 | 4.0 | 10.0 | 0.00 | 0.00 | 0.00 | 65 | 1008.1 |
| 20260508223112 | 70 | 277 | 3.0 | 6.0 | 0.00 | 0.00 | 0.00 | 65 | 1008.1 |
| 20260508222607 | 70 | 225 | 1.0 | 10.0 | 0.00 | 0.00 | 0.00 | 66 | 1008.3 |
| 20260508222123 | 70 | 217 | 2.0 | 10.0 | 0.00 | 0.00 | 0.00 | 64 | 1008.3 |
| 20260508221620 | 70 | 268 | 2.0 | 7.0 | 0.00 | 0.00 | 0.00 | 64 | 1008.3 |
| 20260508221114 | 71 | 202 | 0.0 | 9.0 | 0.00 | 0.00 | 0.00 | 64 | 1008.7 |
| 20260508220609 | 71 | 279 | 2.0 | 9.0 | 0.00 | 0.00 | 0.00 | 65 | 1008.7 |
| 20260508220103 | 72 | 274 | 4.0 | 8.0 | 0.00 | 0.00 | 0.00 | 62 | 1008.7 |
| 20260508215605 | 72 | 227 | 2.0 | 4.0 | 0.00 | 0.00 | 0.00 | 61 | 1008.7 |
| 20260508215100 | 73 | 256 | 0.0 | 6.0 | 0.00 | 0.00 | 0.00 | 61 | 1008.7 |
| 20260508214634 | 74 | 281 | 0.0 | 6.0 | 0.00 | 0.00 | 0.00 | 59 | 1008.7 |
| 20260508214133 | 74 | 246 | 2.0 | 6.0 | 0.00 | 0.00 | 0.00 | 59 | 1008.7 |
| 20260508213613 | 73 | 205 | 0.0 | 7.0 | 0.00 | 0.00 | 0.00 | 60 | 1008.7 |
| 20260508213109 | 73 | 278 | 1.0 | 7.0 | 0.00 | 0.00 | 0.00 | 58 | 1008.7 |
| 20260508212625 | 74 | 165 | 0.0 | 2.0 | 0.00 | 0.00 | 0.00 | 60 | 1008.9 |
| 20260508212129 | 73 | 165 | 0.0 | 3.0 | 0.00 | 0.00 | 0.00 | 61 | 1008.9 |
| 20260508211644 | 73 | 150 | 0.0 | 3.0 | 0.00 | 0.00 | 0.00 | 59 | 1008.9 |
| 20260508211102 | 74 | 121 | 0.0 | 1.0 | 0.00 | 0.00 | 0.00 | 58 | 1009.1 |
| 20260508210557 | 75 | 108 | 0.0 | 5.0 | 0.00 | 0.00 | 0.00 | 57 | 1009.1 |
| 20260508210057 | 75 | 99 | 0.0 | 10.0 | 0.00 | 0.00 | 0.00 | 58 | 1009.1 |
| 20260508205611 | 75 | 78 | 1.0 | 10.0 | 0.00 | 0.00 | 0.00 | 59 | 1009.2 |
| 20260508205107 | 75 | 76 | 2.0 | 7.0 | 0.00 | 0.00 | 0.00 | 60 | 1009.2 |
| 20260508204601 | 74 | 36 | 0.0 | 4.0 | 0.00 | 0.00 | 0.00 | 59 | 1009.2 |
| 20260508204134 | 74 | 18 | 0.0 | 2.0 | 0.00 | 0.00 | 0.00 | 60 | 1009.2 |
| 20260508203632 | 74 | 9 | 0.0 | 5.0 | 0.00 | 0.00 | 0.00 | 62 | 1009.2 |
| 20260508203106 | 74 | 332 | 0.0 | 5.0 | 0.00 | 0.00 | 0.00 | 61 | 1009.2 |
| 20260508202621 | 74 | 333 | 0.0 | 5.0 | 0.00 | 0.00 | 0.00 | 61 | 1009.4 |
| 20260508202114 | 74 | 332 | 0.0 | 4.0 | 0.00 | 0.00 | 0.00 | 60 | 1009.4 |
| 20260508201624 | 75 | 360 | 0.0 | 4.0 | 0.00 | 0.00 | 0.00 | 60 | 1009.4 |
| 20260508201109 | 75 | 68 | 0.0 | 6.0 | 0.00 | 0.00 | 0.00 | 59 | 1009.6 |
| 20260508200621 | 74 | 82 | 2.0 | 6.0 | 0.00 | 0.00 | 0.00 | 62 | 1009.6 |
| 20260508200124 | 73 | 68 | 3.0 | 5.0 | 0.00 | 0.00 | 0.00 | 63 | 1009.6 |
| 20260508195621 | 73 | 73 | 0.0 | 5.0 | 0.00 | 0.00 | 0.00 | 60 | 1009.7 |
| 20260508195135 | 73 | 73 | 0.0 | 5.0 | 0.00 | 0.00 | 0.00 | 62 | 1009.7 |
| 20260508194608 | 72 | 67 | 0.0 | 3.0 | 0.00 | 0.00 | 0.00 | 65 | 1009.7 |
| 20260508194107 | 72 | 60 | 1.0 | 3.0 | 0.00 | 0.00 | 0.00 | 64 | 1009.8 |
| 20260508193604 | 72 | 75 | 0.0 | 4.0 | 0.00 | 0.00 | 0.00 | 64 | 1009.8 |
| 20260508193059 | 71 | 84 | 0.0 | 6.0 | 0.00 | 0.00 | 0.00 | 65 | 1009.8 |
| 20260508192614 | 71 | 62 | 2.0 | 6.0 | 0.00 | 0.00 | 0.00 | 68 | 1010.1 |
| 20260508192109 | 71 | 54 | 0.0 | 5.0 | 0.00 | 0.00 | 0.00 | 67 | 1010.1 |
| 20260508191605 | 70 | 69 | 0.0 | 5.0 | 0.00 | 0.00 | 0.00 | 69 | 1010.1 |
| 20260508191059 | 70 | 66 | 0.0 | 4.0 | 0.00 | 0.00 | 0.00 | 70 | 1010.3 |
| 20260508190615 | 69 | 63 | 0.0 | 5.0 | 0.00 | 0.00 | 0.00 | 70 | 1010.3 |
| 20260508190114 | 69 | 63 | 0.0 | 5.0 | 0.00 | 0.00 | 0.00 | 71 | 1010.3 |
| 20260508185606 | 68 | 16 | 0.0 | 3.0 | 0.00 | 0.00 | 0.00 | 72 | 1010.3 |
| 20260508185122 | 68 | 77 | 0.0 | 4.0 | 0.00 | 0.00 | 0.00 | 69 | 1010.3 |
| 20260508184555 | 68 | 77 | 0.0 | 4.0 | 0.00 | 0.00 | 0.00 | 73 | 1010.3 |
| 20260508184110 | 67 | 70 | 0.0 | 0.0 | 0.00 | 0.00 | 0.00 | 74 | 1010.4 |
| 20260508183610 | 67 | 70 | 0.0 | 0.0 | 0.00 | 0.00 | 0.00 | 74 | 1010.4 |
| 20260508183124 | 66 | 70 | 0.0 | 4.0 | 0.00 | 0.00 | 0.00 | 75 | 1010.4 |
| 20260508182559 | 66 | 70 | 2.0 | 5.0 | 0.00 | 0.00 | 0.00 | 77 | 1010.4 |
| 20260508182117 | 65 | 70 | 0.0 | 5.0 | 0.00 | 0.00 | 0.00 | 79 | 1010.4 |
| 20260508181659 | 65 | 80 | 0.0 | 0.0 | 0.00 | 0.00 | 0.00 | 79 | 1010.4 |
| 20260508181123 | 64 | 80 | 0.0 | 4.0 | 0.00 | 0.00 | 0.00 | 80 | 1010.5 |
| 20260508180607 | 64 | 80 | 0.0 | 4.0 | 0.00 | 0.00 | 0.00 | 81 | 1010.5 |
| 20260508180104 | 63 | 78 | 0.0 | 4.0 | 0.00 | 0.00 | 0.00 | 81 | 1010.5 |
| 20260508175600 | 63 | 77 | 1.0 | 3.0 | 0.00 | 0.00 | 0.00 | 82 | 1010.6 |
| 20260508175057 | 63 | 74 | 0.0 | 2.0 | 0.00 | 0.00 | 0.00 | 82 | 1010.6 |
| 20260508174613 | 62 | 74 | 0.0 | 2.0 | 0.00 | 0.00 | 0.00 | 84 | 1010.6 |
| 20260508174107 | 62 | 76 | 0.0 | 0.0 | 0.00 | 0.00 | 0.00 | 84 | 1010.8 |
| 20260508173601 | 62 | 76 | 0.0 | 0.0 | 0.00 | 0.00 | 0.00 | 84 | 1010.8 |
| 20260508173055 | 62 | 76 | 0.0 | 0.0 | 0.00 | 0.00 | 0.00 | 85 | 1010.8 |
| 20260508172614 | 62 | 76 | 0.0 | 0.0 | 0.00 | 0.00 | 0.00 | 85 | 1010.9 |
| 20260508172053 | 62 | 76 | 0.0 | 0.0 | 0.00 | 0.00 | 0.00 | 86 | 1010.9 |
| 20260508171618 | 62 | 76 | 0.0 | 2.0 | 0.00 | 0.00 | 0.00 | 87 | 1010.9 |
| 20260508171135 | 62 | 76 | 0.0 | 2.0 | 0.00 | 0.00 | 0.00 | 87 | 1010.7 |
| 20260508170554 | 62 | 68 | 0.0 | 0.0 | 0.00 | 0.00 | 0.00 | 88 | 1010.7 |
| 20260508170108 | 61 | 88 | 0.0 | 2.0 | 0.00 | 0.00 | 0.00 | 88 | 1010.7 |
| 20260508165622 | 61 | 88 | 1.0 | 3.0 | 0.00 | 0.00 | 0.00 | 89 | 1010.7 |
| 20260508165100 | 61 | 65 | 0.0 | 3.0 | 0.00 | 0.00 | 0.00 | 89 | 1010.7 |
| 20260508164600 | 61 | 65 | 0.0 | 0.0 | 0.00 | 0.00 | 0.00 | 90 | 1010.7 |
| 20260508164127 | 60 | 65 | 0.0 | 0.0 | 0.00 | 0.00 | 0.00 | 90 | 1010.6 |
| 20260508163623 | 60 | 42 | 0.0 | 1.0 | 0.00 | 0.00 | 0.00 | 91 | 1010.6 |
| 20260508163058 | 60 | 41 | 0.0 | 2.0 | 0.00 | 0.00 | 0.00 | 91 | 1010.6 |
| 20260508162634 | 60 | 68 | 0.0 | 2.0 | 0.00 | 0.00 | 0.00 | 91 | 1010.7 |
| 20260508162108 | 60 | 76 | 0.0 | 0.0 | 0.00 | 0.00 | 0.00 | 92 | 1010.7 |
| 20260508161603 | 60 | 61 | 0.0 | 0.0 | 0.00 | 0.00 | 0.00 | 92 | 1010.7 |
| 20260508161103 | 60 | 61 | 0.0 | 0.0 | 0.00 | 0.00 | 0.00 | 92 | 1010.6 |
| 20260508160557 | 60 | 60 | 0.0 | 2.0 | 0.00 | 0.00 | 0.00 | 92 | 1010.6 |
| 20260508160207 | 60 | 60 | 0.0 | 4.0 | 0.00 | 0.00 | 0.00 | 92 | 1010.6 |
| 20260508155558 | 60 | 58 | 0.0 | 4.0 | 0.00 | 0.00 | 0.00 | 93 | 1010.4 |
| 20260508155054 | 59 | 122 | 0.0 | 3.0 | 0.00 | 0.00 | 0.00 | 93 | 1010.3 |
| 20260508154610 | 59 | 122 | 0.0 | 4.0 | 0.00 | 0.00 | 0.00 | 93 | 1010.3 |
| 20260508154105 | 59 | 130 | 1.0 | 4.0 | 0.00 | 0.00 | 0.00 | 93 | 1010.3 |
| 20260508153604 | 59 | 169 | 0.0 | 1.0 | 0.00 | 0.00 | 0.00 | 93 | 1010.3 |
| 20260508153119 | 59 | 169 | 0.0 | 0.0 | 0.00 | 0.00 | 0.00 | 93 | 1010.4 |
| 20260508152654 | 59 | 169 | 0.0 | 0.0 | 0.00 | 0.00 | 0.00 | 93 | 1010.6 |
| 20260508152053 | 59 | 169 | 0.0 | 0.0 | 0.00 | 0.00 | 0.00 | 93 | 1010.6 |
| 20260508151631 | 59 | 169 | 0.0 | 0.0 | 0.00 | 0.00 | 0.00 | 93 | 1010.6 |
| 20260508151106 | 59 | 170 | 0.0 | 0.0 | 0.00 | 0.00 | 0.00 | 94 | 1010.6 |
| 20260508150602 | 59 | 175 | 0.0 | 0.0 | 0.00 | 0.00 | 0.00 | 94 | 1010.6 |
| 20260508150100 | 59 | 86 | 0.0 | 0.0 | 0.00 | 0.00 | 0.00 | 94 | 1010.6 |
| 20260508145553 | 59 | 86 | 0.0 | 3.0 | 0.00 | 0.00 | 0.00 | 94 | 1010.6 |
| 20260508145109 | 59 | 86 | 0.0 | 3.0 | 0.00 | 0.00 | 0.00 | 94 | 1010.6 |
| 20260508144628 | 58 | 86 | 0.0 | 4.0 | 0.00 | 0.00 | 0.00 | 94 | 1010.6 |
| 20260508144102 | 58 | 86 | 2.0 | 4.0 | 0.00 | 0.00 | 0.00 | 94 | 1010.6 |
| 20260508143557 | 58 | 86 | 1.0 | 2.0 | 0.00 | 0.00 | 0.00 | 94 | 1010.6 |
| 20260508143055 | 58 | 87 | 0.0 | 0.0 | 0.00 | 0.00 | 0.00 | 94 | 1010.6 |
| 20260508142644 | 58 | 87 | 0.0 | 0.0 | 0.00 | 0.00 | 0.00 | 94 | 1010.5 |
| 20260508142118 | 58 | 87 | 0.0 | 0.0 | 0.00 | 0.00 | 0.00 | 94 | 1010.5 |
| 20260508141613 | 58 | 87 | 0.0 | 0.0 | 0.00 | 0.00 | 0.00 | 94 | 1010.5 |
| 20260508141109 | 58 | 87 | 0.0 | 1.0 | 0.00 | 0.00 | 0.00 | 94 | 1010.4 |
| 20260508140603 | 58 | 87 | 0.0 | 1.0 | 0.00 | 0.00 | 0.00 | 94 | 1010.4 |
| 20260508140120 | 58 | 87 | 0.0 | 0.0 | 0.00 | 0.00 | 0.00 | 94 | 1010.4 |
| 20260508135634 | 58 | 87 | 0.0 | 0.0 | 0.00 | 0.00 | 0.00 | 94 | 1010.4 |
| 20260508135108 | 58 | 81 | 0.0 | 0.0 | 0.00 | 0.00 | 0.00 | 93 | 1010.4 |
| 20260508134604 | 58 | 82 | 0.0 | 0.0 | 0.00 | 0.00 | 0.00 | 93 | 1010.4 |
| 20260508134058 | 58 | 82 | 0.0 | 0.0 | 0.00 | 0.00 | 0.00 | 93 | 1010.4 |
| 20260508133554 | 58 | 82 | 0.0 | 0.0 | 0.00 | 0.00 | 0.00 | 93 | 1010.4 |
| 20260508133112 | 58 | 82 | 0.0 | 0.0 | 0.00 | 0.00 | 0.00 | 93 | 1010.4 |
| 20260508132653 | 58 | 82 | 0.0 | 0.0 | 0.00 | 0.00 | 0.00 | 93 | 1010.3 |
| 20260508132102 | 58 | 82 | 0.0 | 0.0 | 0.00 | 0.00 | 0.00 | 93 | 1010.3 |
| 20260508131557 | 58 | 82 | 0.0 | 0.0 | 0.00 | 0.00 | 0.00 | 93 | 1010.3 |
| 20260508131110 | 58 | 82 | 0.0 | 0.0 | 0.00 | 0.00 | 0.00 | 93 | 1010.0 |
| 20260508130620 | 58 | 82 | 0.0 | 0.0 | 0.00 | 0.00 | 0.00 | 93 | 1010.0 |
| 20260508130114 | 58 | 82 | 0.0 | 0.0 | 0.00 | 0.00 | 0.00 | 93 | 1010.0 |
| 20260508125559 | 58 | 82 | 0.0 | 0.0 | 0.00 | 0.00 | 0.00 | 93 | 1009.8 |
| 20260508125114 | 58 | 82 | 0.0 | 0.0 | 0.00 | 0.00 | 0.00 | 93 | 1009.8 |
| 20260508124612 | 58 | 82 | 0.0 | 3.0 | 0.00 | 0.00 | 0.00 | 93 | 1009.8 |
| 20260508124107 | 58 | 82 | 0.0 | 3.0 | 0.00 | 0.00 | 0.00 | 93 | 1009.8 |
| 20260508123601 | 58 | 83 | 0.0 | 0.0 | 0.00 | 0.00 | 0.00 | 93 | 1009.8 |
| 20260508123117 | 58 | 83 | 0.0 | 0.0 | 0.00 | 0.00 | 0.00 | 93 | 1009.8 |
| 20260508122609 | 58 | 83 | 0.0 | 2.0 | 0.00 | 0.00 | 0.00 | 93 | 1009.8 |
| 20260508122104 | 59 | 83 | 0.0 | 2.0 | 0.00 | 0.00 | 0.00 | 92 | 1009.8 |
| 20260508121605 | 59 | 83 | 0.0 | 4.0 | 0.00 | 0.00 | 0.00 | 92 | 1009.8 |
| 20260508121107 | 59 | 81 | 1.0 | 4.0 | 0.00 | 0.00 | 0.00 | 92 | 1009.7 |
| 20260508120606 | 59 | 82 | 0.0 | 0.0 | 0.00 | 0.00 | 0.00 | 92 | 1009.7 |
| 20260508120120 | 59 | 82 | 0.0 | 2.0 | 0.00 | 0.00 | 0.00 | 92 | 1009.7 |
| 20260508115615 | 59 | 82 | 0.0 | 2.0 | 0.00 | 0.00 | 0.00 | 92 | 1009.7 |
| 20260508115110 | 59 | 82 | 0.0 | 1.0 | 0.00 | 0.00 | 0.00 | 92 | 1009.7 |
| 20260508114605 | 59 | 82 | 0.0 | 1.0 | 0.00 | 0.00 | 0.00 | 92 | 1009.7 |
| 20260508114101 | 59 | 82 | 0.0 | 2.0 | 0.00 | 0.00 | 0.00 | 92 | 1009.6 |
| 20260508113555 | 58 | 82 | 0.0 | 2.0 | 0.00 | 0.00 | 0.00 | 92 | 1009.6 |
| 20260508113131 | 58 | 82 | 0.0 | 2.0 | 0.00 | 0.00 | 0.00 | 92 | 1009.6 |
| 20260508112605 | 58 | 82 | 0.0 | 5.0 | 0.00 | 0.00 | 0.00 | 92 | 1009.6 |
| 20260508112100 | 58 | 80 | 1.0 | 5.0 | 0.00 | 0.00 | 0.00 | 92 | 1009.6 |
| 20260508111656 | 58 | 113 | 0.0 | 0.0 | 0.00 | 0.00 | 0.00 | 91 | 1009.6 |
| 20260508111149 | 58 | 113 | 0.0 | 1.0 | 0.00 | 0.00 | 0.00 | 91 | 1009.5 |
| 20260508110609 | 58 | 113 | 0.0 | 3.0 | 0.00 | 0.00 | 0.00 | 91 | 1009.5 |
| 20260508110104 | 58 | 113 | 0.0 | 3.0 | 0.00 | 0.00 | 0.00 | 91 | 1009.5 |
| 20260508105558 | 58 | 124 | 0.0 | 0.0 | 0.00 | 0.00 | 0.00 | 91 | 1009.6 |
| 20260508105112 | 58 | 124 | 0.0 | 0.0 | 0.00 | 0.00 | 0.00 | 91 | 1009.6 |
| 20260508104608 | 58 | 124 | 0.0 | 0.0 | 0.00 | 0.00 | 0.00 | 91 | 1009.6 |
| 20260508104104 | 58 | 124 | 0.0 | 0.0 | 0.00 | 0.00 | 0.00 | 91 | 1009.5 |
| 20260508103649 | 58 | 124 | 0.0 | 0.0 | 0.00 | 0.00 | 0.00 | 91 | 1009.5 |
| 20260508103128 | 58 | 124 | 0.0 | 0.0 | 0.00 | 0.00 | 0.00 | 91 | 1009.5 |
| 20260508102607 | 58 | 124 | 0.0 | 3.0 | 0.00 | 0.00 | 0.00 | 91 | 1009.7 |
| 20260508102102 | 58 | 124 | 0.0 | 3.0 | 0.00 | 0.00 | 0.00 | 91 | 1009.7 |
| 20260508101602 | 58 | 172 | 0.0 | 0.0 | 0.00 | 0.00 | 0.00 | 91 | 1009.7 |
| 20260508101100 | 58 | 172 | 0.0 | 0.0 | 0.00 | 0.00 | 0.00 | 91 | 1009.7 |
| 20260508100558 | 58 | 172 | 0.0 | 0.0 | 0.00 | 0.00 | 0.00 | 91 | 1009.7 |
| 20260508100114 | 58 | 172 | 0.0 | 2.0 | 0.00 | 0.00 | 0.00 | 91 | 1009.7 |
| 20260508095609 | 58 | 171 | 0.0 | 2.0 | 0.00 | 0.00 | 0.00 | 91 | 1009.8 |
| 20260508095104 | 58 | 220 | 0.0 | 0.0 | 0.00 | 0.00 | 0.00 | 91 | 1009.8 |
| 20260508094607 | 58 | 220 | 0.0 | 0.0 | 0.00 | 0.00 | 0.00 | 91 | 1009.8 |
| 20260508094125 | 58 | 220 | 0.0 | 0.0 | 0.00 | 0.00 | 0.00 | 91 | 1009.8 |
| 20260508093612 | 58 | 220 | 0.0 | 0.0 | 0.00 | 0.00 | 0.00 | 91 | 1009.8 |
| 20260508093127 | 58 | 220 | 0.0 | 0.0 | 0.00 | 0.00 | 0.00 | 91 | 1009.8 |
| 20260508092604 | 58 | 220 | 0.0 | 0.0 | 0.00 | 0.00 | 0.00 | 91 | 1009.8 |
| 20260508092122 | 58 | 226 | 0.0 | 1.0 | 0.00 | 0.00 | 0.00 | 92 | 1009.8 |
| 20260508091555 | 58 | 227 | 0.0 | 1.0 | 0.00 | 0.00 | 0.00 | 92 | 1009.8 |
| 20260508091109 | 58 | 229 | 0.0 | 0.0 | 0.00 | 0.00 | 0.00 | 92 | 1009.9 |
| 20260508090605 | 58 | 229 | 0.0 | 0.0 | 0.00 | 0.00 | 0.00 | 92 | 1009.9 |
| 20260508090157 | 58 | 229 | 0.0 | 0.0 | 0.00 | 0.00 | 0.00 | 92 | 1009.9 |
| 20260508085629 | 58 | 229 | 0.0 | 0.0 | 0.00 | 0.00 | 0.00 | 91 | 1010.0 |
| 20260508085109 | 58 | 229 | 0.0 | 0.0 | 0.00 | 0.00 | 0.00 | 91 | 1010.0 |
| 20260508084644 | 57 | 229 | 0.0 | 0.0 | 0.00 | 0.00 | 0.00 | 91 | 1010.0 |
| 20260508084113 | 57 | 229 | 0.0 | 0.0 | 0.00 | 0.00 | 0.00 | 91 | 1010.0 |
| 20260508083612 | 57 | 229 | 0.0 | 0.0 | 0.00 | 0.00 | 0.00 | 91 | 1010.0 |
| 20260508083108 | 57 | 229 | 0.0 | 0.0 | 0.00 | 0.00 | 0.00 | 91 | 1010.0 |
| 20260508082603 | 57 | 229 | 0.0 | 0.0 | 0.00 | 0.00 | 0.00 | 91 | 1010.1 |
| 20260508082059 | 57 | 229 | 0.0 | 0.0 | 0.00 | 0.00 | 0.00 | 91 | 1010.1 |
| 20260508081554 | 57 | 229 | 0.0 | 0.0 | 0.00 | 0.00 | 0.00 | 91 | 1010.1 |
| 20260508081110 | 57 | 229 | 0.0 | 0.0 | 0.00 | 0.00 | 0.00 | 90 | 1010.3 |
| 20260508080606 | 57 | 229 | 0.0 | 0.0 | 0.00 | 0.00 | 0.00 | 90 | 1010.3 |
| 20260508080101 | 57 | 229 | 0.0 | 0.0 | 0.00 | 0.00 | 0.00 | 90 | 1010.3 |
| 20260508075556 | 57 | 229 | 0.0 | 0.0 | 0.00 | 0.00 | 0.00 | 90 | 1010.3 |
| 20260508075132 | 57 | 229 | 0.0 | 0.0 | 0.00 | 0.00 | 0.00 | 90 | 1010.3 |
| 20260508074627 | 57 | 229 | 0.0 | 0.0 | 0.00 | 0.00 | 0.00 | 90 | 1010.3 |
| 20260508074119 | 57 | 229 | 0.0 | 0.0 | 0.00 | 0.00 | 0.00 | 89 | 1010.3 |
| 20260508073645 | 57 | 229 | 0.0 | 0.0 | 0.00 | 0.00 | 0.00 | 89 | 1010.3 |
| 20260508073124 | 57 | 229 | 0.0 | 0.0 | 0.00 | 0.00 | 0.00 | 89 | 1010.3 |
| 20260508072605 | 57 | 229 | 0.0 | 0.0 | 0.00 | 0.00 | 0.00 | 89 | 1010.3 |
| 20260508072104 | 57 | 229 | 0.0 | 0.0 | 0.00 | 0.00 | 0.00 | 89 | 1010.3 |
| 20260508071600 | 57 | 229 | 0.0 | 0.0 | 0.00 | 0.00 | 0.00 | 89 | 1010.3 |
| 20260508071055 | 57 | 229 | 0.0 | 0.0 | 0.00 | 0.00 | 0.00 | 88 | 1010.3 |
| 20260508070611 | 57 | 229 | 0.0 | 0.0 | 0.00 | 0.00 | 0.00 | 88 | 1010.3 |
| 20260508070106 | 57 | 229 | 0.0 | 0.0 | 0.00 | 0.00 | 0.00 | 88 | 1010.3 |
| 20260508065604 | 57 | 229 | 0.0 | 0.0 | 0.00 | 0.00 | 0.00 | 88 | 1010.2 |
| 20260508065058 | 57 | 229 | 0.0 | 0.0 | 0.00 | 0.00 | 0.00 | 88 | 1010.2 |
| 20260508064554 | 57 | 229 | 0.0 | 0.0 | 0.00 | 0.00 | 0.00 | 88 | 1010.2 |
| 20260508064055 | 58 | 229 | 0.0 | 0.0 | 0.00 | 0.00 | 0.00 | 88 | 1010.2 |
| 20260508063610 | 58 | 229 | 0.0 | 0.0 | 0.00 | 0.00 | 0.00 | 88 | 1010.2 |
| 20260508063217 | 58 | 229 | 0.0 | 0.0 | 0.00 | 0.00 | 0.00 | 88 | 1010.2 |
| 20260508062556 | 58 | 229 | 0.0 | 0.0 | 0.00 | 0.00 | 0.00 | 88 | 1010.0 |
| 20260508062111 | 58 | 229 | 0.0 | 0.0 | 0.00 | 0.00 | 0.00 | 88 | 1010.0 |
| 20260508061607 | 58 | 229 | 0.0 | 0.0 | 0.00 | 0.00 | 0.00 | 88 | 1010.0 |
| 20260508061120 | 58 | 229 | 0.0 | 0.0 | 0.00 | 0.00 | 0.00 | 88 | 1010.2 |
| 20260508060621 | 58 | 229 | 0.0 | 0.0 | 0.00 | 0.00 | 0.00 | 87 | 1010.2 |
| 20260508060110 | 58 | 229 | 0.0 | 0.0 | 0.00 | 0.00 | 0.00 | 87 | 1010.2 |
| 20260508055605 | 58 | 229 | 0.0 | 0.0 | 0.00 | 0.00 | 0.00 | 87 | 1010.3 |
| 20260508055101 | 58 | 229 | 0.0 | 0.0 | 0.00 | 0.00 | 0.00 | 87 | 1010.3 |